Tracking 27428 objects as of 1-Jun-2023
HD Live streaming from Space Station
objects crossing your sky now

COSMOS 198

Track COSMOS 198 now!
10-day predictions
COSMOS 198 is classified as:


NORAD ID: 3081
Int'l Code: 1967-127A
Perigee: 911.6 km
Apogee: 937.1 km
Inclination: 65.1 °
Period: 103.4 minutes
Semi major axis: 7295 km
RCS: 2.5177 m2 (large)
Launch date: December 27, 1967
Source: Commonwealth of Independent States (former USSR) (CIS)
Launch site: TYURATAM MISSILE AND SPACE COMPLEX (TTMTR)
Your satellite tracking list
Your tracking list is empty




NASA's NSSDC Master Catalog

Two Line Element Set (TLE):
1  3081U 67127A   23151.85091782 -.00000050  00000-0  30475-4 0  9996
2  3081  65.1431 311.9606 0017425 153.8874 206.3075 13.93262325819080
Source of the keplerian elements: AFSPC